Wind_Gust
27 27 27 27 27 27 27 27 26 26 27 27 26 26 25 23 23 22 21 20 20 19 20 20 18 17 17 15 14 14 14 20 20 21 21 26 17 16 14 20 16 16 12 18 20 19 17 17 18 17 21 22 17 22 18 17 18 16 20 15 15 15 21 17 26 17 19 17 15 18 15 16 17 13 17 21 18 17 17 16 27 37 30 18 19 20 19 21
27 28 28 28 28 27 27 27 27 26 27 28 28 28 27 26 23 22 22 21 20 21 20 19 19 17 16 14 13 10 16 20 24 24 31 16 17 14 15 16 16 18 17 21 20 19 18 17 16 18 21 22 13 19 16 21 15 20 19 14 14 16 16 13 18 15 15 18 17 18 16 17 17 16 15 18 14 16 18 20 29 27 20 19 16 20 19 20
27 28 28 29 29 28 28 27 27 27 27 27 27 28 28 27 25 24 23 22 21 21 21 19 17 16 15 13 11 10 17 23 25 31 27 13 18 16 14 16 19 17 23 20 19 20 22 14 15 19 19 23 17 19 17 22 20 18 18 16 17 19 18 16 14 20 20 17 21 18 16 16 18 19 12 19 20 18 20 23 17 22 20 20 18 18 20 20
27 27 28 29 29 29 27 28 27 26 26 27 27 28 28 27 26 25 23 23 22 20 20 19 17 15 14 13 7 18 20 22 27 22 24 13 17 16 14 16 17 21 23 24 21 21 14 17 16 18 24 24 21 15 19 23 24 23 22 22 19 23 20 20 15 15 16 17 20 20 19 20 19 20 18 18 19 20 19 22 21 19 27 22 20 20 21 20
27 27 28 29 30 28 29 28 28 27 27 26 27 27 26 27 26 25 24 22 23 21 19 19 17 14 13 11 13 18 17 26 23 21 21 14 16 17 13 14 15 22 21 19 21 20 18 16 15 18 20 32 18 17 18 14 21 20 20 22 20 17 21 17 18 14 16 16 19 19 21 21 16 16 20 18 20 20 20 24 18 28 23 25 21 20 20 19
28 27 28 28 30 29 29 29 28 27 28 27 27 27 27 26 25 24 24 24 23 22 19 17 16 14 11 8 19 19 20 14 18 20 15 14 15 14 14 12 16 21 19 21 21 15 17 17 18 20 23 22 21 22 24 19 15 24 19 23 22 17 18 16 18 17 16 20 19 19 19 19 19 20 19 19 22 19 17 14 17 24 26 24 20 20 19 19
27 29 29 29 30 29 29 29 29 29 28 28 28 27 27 26 25 24 25 24 23 22 20 16 14 14 12 9 22 19 25 36 19 19 19 16 14 14 12 11 11 19 21 22 19 21 16 22 19 20 24 22 16 20 11 16 14 19 25 19 18 16 18 18 20 17 19 20 21 21 20 22 20 24 16 21 22 20 16 18 18 19 25 25 20 19 18 19
30 29 29 29 30 29 29 29 30 30 29 28 28 27 28 27 27 25 24 23 22 20 18 15 12 12 9 18 19 22 25 27 26 24 17 19 18 17 15 20 21 20 20 22 19 19 17 19 23 21 22 23 22 18 15 18 19 22 26 21 21 17 19 20 19 20 18 20 22 21 22 23 20 23 19 23 23 19 18 18 19 18 16 16 17 19 17 18
30 29 29 29 30 29 30 30 30 30 29 29 29 29 28 27 27 26 24 23 20 18 15 14 12 10 7 16 22 25 20 24 25 26 27 25 23 22 23 24 24 22 22 21 21 20 17 19 18 15 22 21 18 17 16 20 27 21 19 20 20 22 21 20 20 20 22 24 18 18 21 21 22 22 25 28 26 19 18 16 16 16 16 18 19 18 18 18
30 29 29 30 30 30 30 30 30 31 29 30 31 30 27 27 25 25 24 23 19 17 13 10 10 8 13 18 21 26 17 16 25 25 26 25 24 24 25 22 24 23 23 21 19 20 21 21 20 21 17 21 20 21 18 21 26 21 19 20 23 23 23 21 23 21 20 20 19 21 20 21 22 20 22 15 18 16 18 17 17 17 17 16 16 18 17 18
29 30 30 31 31 31 31 30 31 31 31 31 31 29 27 26 25 24 24 22 17 14 11 10 7 12 18 19 22 23 17 20 19 22 22 23 24 26 27 25 22 26 23 21 22 19 20 18 12 18 21 24 21 20 18 25 21 21 23 23 24 26 28 26 26 27 24 25 16 19 22 21 23 18 26 19 17 16 18 19 19 18 18 22 20 18 16 18
30 30 31 32 32 32 33 32 32 32 32 31 29 30 29 27 24 23 22 19 17 12 10 10 12 19 20 23 24 25 18 13 18 19 21 22 25 27 24 24 22 23 22 23 20 17 19 18 14 20 28 22 27 20 20 19 20 21 22 29 25 27 33 24 28 25 18 24 13 17 25 27 26 25 21 20 14 14 16 17 19 19 18 22 19 19 20 20
31 31 32 32 33 33 34 34 34 33 32 31 33 31 29 27 23 23 20 17 8 9 8 8 11 20 19 22 29 32 17 17 16 16 19 21 21 21 22 22 22 21 22 23 21 21 21 20 16 22 23 25 24 30 28 30 24 24 25 29 27 29 33 30 25 21 19 25 14 17 27 18 22 23 16 14 12 14 16 18 19 19 19 20 20 20 20 20
32 31 33 34 33 34 35 34 35 34 33 31 33 32 30 28 23 21 17 14 14 10 8 10 20 20 19 23 24 12 14 13 15 17 20 21 21 22 21 22 22 22 21 23 22 20 20 16 17 23 23 25 29 21 27 27 25 31 25 24 27 26 33 28 29 25 22 20 16 18 27 21 18 15 14 12 12 15 17 17 18 19 19 18 23 21 21 22
33 32 34 34 34 35 36 35 34 34 34 33 34 33 31 29 22 18 15 14 11 9 7 7 20 17 21 27 26 14 10 13 18 20 21 24 22 21 21 20 21 21 23 21 23 16 15 16 18 23 28 24 28 29 31 28 27 28 31 29 29 30 28 23 21 23 22 23 20 18 26 25 21 18 17 17 20 15 15 15 16 18 19 19 24 20 21 23
33 34 34 35 35 35 35 34 34 35 36 36 36 37 34 26 22 17 12 12 9 9 18 15 20 22 23 30 15 14 17 20 23 21 22 21 23 22 20 20 18 20 21 21 20 20 17 19 25 24 27 24 27 28 28 29 27 29 28 22 27 29 30 23 28 21 21 19 19 20 27 24 23 23 19 21 21 21 18 15 15 17 18 20 20 22 20 20
34 34 34 34 33 35 34 34 34 36 36 38 38 37 32 22 15 10 10 9 13 16 18 20 14 23 18 19 14 17 23 22 17 23 22 23 22 22 20 20 22 21 20 20 20 20 21 25 21 29 27 31 27 29 29 27 27 27 23 26 23 23 23 24 21 25 23 21 22 20 27 23 25 26 30 27 22 20 17 17 16 17 19 19 19 21 20 20
34 34 34 33 34 34 36 34 35 35 36 36 37 33 40 28 9 9 12 12 20 21 20 23 21 20 36 34 26 19 15 19 17 21 21 23 22 22 22 24 18 20 20 23 23 26 24 30 25 30 24 26 28 28 29 26 24 22 22 21 24 22 24 24 27 24 18 19 22 22 24 25 25 27 29 26 18 18 17 16 17 17 18 19 21 21 20 22
34 34 34 34 34 35 34 33 36 36 34 37 38 32 13 9 17 20 20 17 18 17 17 23 23 24 24 18 17 20 18 15 15 17 24 23 23 24 22 20 19 21 25 25 25 25 26 27 25 27 30 27 28 27 29 27 25 26 25 27 26 26 25 28 24 24 24 26 25 23 28 26 25 27 27 29 28 23 20 21 18 17 18 19 21 21 22 22
33 33 34 34 33 34 34 34 34 36 34 30 34 33 18 17 18 17 15 17 24 25 29 27 23 26 25 23 23 17 20 16 19 20 19 22 22 22 24 23 23 24 25 27 23 29 21 27 28 29 27 26 24 26 27 28 27 28 28 27 27 29 28 26 27 27 26 28 25 26 26 26 25 24 25 29 30 29 26 20 19 19 18 19 20 22 21 20
34 34 35 35 36 35 34 34 36 36 35 30 29 25 21 23 23 24 34 30 28 26 27 28 28 27 30 23 18 14 18 22 22 21 23 24 22 21 28 25 25 28 28 24 28 21 29 28 29 26 26 26 25 25 25 27 27 26 25 25 30 27 29 25 27 23 25 27 26 26 28 28 27 25 25 26 28 30 27 21 20 19 19 18 19 21 22 21
33 33 34 35 35 35 35 35 38 33 35 27 23 23 18 18 15 17 20 32 24 29 29 31 29 32 27 27 23 20 16 24 26 23 23 23 25 28 24 27 26 29 23 26 26 28 26 30 26 25 26 26 27 27 26 27 25 24 28 26 28 29 27 26 28 27 28 26 29 26 28 29 27 27 26 26 26 26 26 26 25 17 17 19 20 21 20 20
33 34 34 35 34 36 36 37 37 35 25 23 21 17 18 16 15 14 17 29 39 31 27 26 25 26 26 22 22 18 22 27 27 29 30 24 24 31 22 29 27 27 28 25 28 25 29 27 30 30 27 26 26 25 24 24 25 26 26 28 30 25 27 28 26 29 29 34 25 24 29 30 28 28 29 26 28 27 28 32 28 20 19 20 20 19 19 22
32 33 35 35 36 36 38 35 39 24 19 18 15 18 13 15 17 17 21 23 29 27 24 22 23 17 19 18 24 19 22 27 27 24 28 31 30 23 32 25 25 28 30 27 27 30 28 25 28 27 25 20 24 23 22 24 25 25 26 28 30 26 27 29 27 31 30 30 29 31 32 32 26 26 25 23 22 22 22 26 23 18 19 19 19 19 20 22
32 32 34 35 36 35 40 35 17 21 23 24 13 14 16 16 16 16 21 25 29 25 15 14 12 16 14 14 15 20 18 22 22 21 29 28 30 27 29 28 30 29 26 26 28 32 31 29 31 35 33 28 23 26 25 24 26 26 23 25 26 26 27 25 26 28 32 32 28 26 34 27 20 22 25 23 22 20 19 21 19 19 20 20 22 22 20 22
32 33 33 34 36 34 44 20 16 30 29 17 19 20 19 17 16 16 17 21 24 23 18 19 17 17 17 17 14 20 15 26 19 23 21 32 24 32 25 32 31 29 25 26 31 35 28 24 27 29 30 29 29 27 21 20 26 25 26 23 25 26 25 26 27 27 29 30 24 24 30 35 21 25 24 24 23 22 20 19 20 19 21 24 24 23 24 24
31 32 32 32 33 30 28 17 27 30 21 18 20 19 18 17 15 15 19 18 20 23 14 25 20 19 16 15 19 13 18 22 17 15 17 26 25 23 33 27 27 27 28 27 30 33 26 27 28 27 28 27 25 26 24 25 27 31 21 24 23 23 23 24 24 26 30 24 30 31 34 34 32 28 27 23 23 23 22 22 22 23 22 26 23 23 21 24
32 31 32 31 33 21 21 28 25 22 19 19 21 20 19 16 17 13 17 16 16 14 16 21 15 17 16 17 17 23 18 15 22 23 15 21 20 21 29 27 29 24 25 25 30 22 25 30 26 26 25 29 27 23 23 25 34 30 21 24 26 26 24 26 27 27 27 26 31 27 23 34 30 23 21 22 26 22 22 22 21 21 19 21 22 22 22 23
32 31 30 30 32 37 23 20 20 21 21 22 21 22 21 17 16 18 17 13 18 26 22 13 14 17 16 14 18 17 21 22 20 22 14 12 20 20 26 27 30 29 29 28 31 29 31 25 27 27 26 27 22 24 24 23 30 21 23 23 25 24 25 26 30 28 27 30 30 26 25 36 33 22 25 19 21 20 19 18 17 16 16 15 17 19 19 20
32 30 30 26 30 22 17 20 22 22 21 21 21 22 21 18 17 16 13 16 18 14 14 18 18 15 16 20 21 20 24 23 16 23 15 19 19 20 26 17 20 25 31 30 34 31 34 25 24 18 22 22 24 25 25 23 23 23 25 29 30 29 29 27 30 31 29 32 33 27 30 33 39 22 22 21 16 17 20 21 19 15 25 21 22 22 17 19
31 30 29 22 23 22 24 20 15 19 20 21 22 23 18 17 18 17 10 14 18 19 16 19 16 16 19 18 24 23 20 15 17 16 20 20 21 20 18 26 23 25 25 26 32 29 29 30 29 27 23 29 24 31 25 23 24 24 30 27 27 28 27 30 29 27 33 34 27 31 34 31 34 23 26 25 17 14 16 18 28 25 30 32 26 28 31 27
34 34 31 28 25 23 19 19 25 21 22 21 20 19 18 18 23 22 19 20 26 17 16 17 10 17 14 13 22 17 21 20 16 18 22 23 21 23 25 23 26 25 26 24 28 25 31 31 27 26 23 24 27 27 27 27 27 28 26 26 26 28 28 29 25 30 31 34 23 22 22 25 30 25 26 28 26 25 28 30 30 31 32 31 31 27 27 26
36 36 35 29 19 17 21 23 22 20 18 19 19 17 20 16 18 21 30 20 21 14 17 17 22 15 15 18 24 25 18 23 17 18 16 21 24 23 25 28 23 28 25 14 19 20 22 20 22 24 23 25 24 29 25 27 23 23 24 24 26 28 25 26 28 28 30 29 25 28 21 28 23 26 23 23 22 30 29 30 30 29 28 28 29 26 26 27
38 38 29 18 19 20 19 17 18 17 18 15 18 18 20 16 23 11 23 23 21 16 15 21 17 16 18 27 29 29 21 18 22 26 17 21 21 23 26 25 29 27 25 26 30 22 24 24 24 23 26 20 27 27 26 27 25 24 23 27 23 28 32 27 29 28 26 28 26 20 25 26 20 16 19 15 13 25 26 28 25 25 24 23 25 27 26 26
43 36 24 21 22 23 20 19 14 13 16 16 19 23 18 26 24 25 22 19 20 21 17 22 22 21 23 26 24 29 21 22 15 17 23 25 25 27 26 24 20 15 17 20 18 27 26 31 23 22 20 14 24 21 19 21 25 25 25 24 27 28 20 32 28 30 30 30 28 24 27 19 25 19 18 15 16 17 21 21 23 24 25 25 26 27 27 29
31 20 23 19 15 13 13 14 9 11 15 18 21 22 26 21 21 16 19 20 20 18 23 23 24 26 28 24 22 25 23 21 18 25 22 22 23 26 20 19 17 17 16 18 15 21 20 26 18 26 23 23 23 22 21 16 24 17 20 27 25 18 24 26 24 26 25 27 34 23 32 31 25 25 24 30 23 21 23 25 26 25 24 23 26 27 27 27
25 26 20 13 13 16 12 11 11 13 16 20 21 22 24 28 22 25 17 16 17 18 18 21 25 22 21 22 20 23 22 15 22 26 26 19 28 28 13 13 13 12 14 16 20 22 25 23 20 20 22 19 21 22 22 22 25 30 32 25 22 23 26 28 32 24 27 34 32 27 30 28 28 29 18 18 19 22 22 23 24 23 25 26 26 27 29 29
27 23 22 21 16 13 11 12 13 15 19 20 23 15 22 29 21 16 18 15 18 15 22 19 26 16 26 27 22 22 23 16 11 13 21 18 27 18 11 15 14 14 12 11 18 17 18 27 25 26 28 28 23 24 27 27 28 33 31 21 30 24 25 22 24 24 26 33 36 31 29 32 23 25 21 18 19 20 21 22 24 26 27 27 27 29 29 29
25 24 22 15 16 15 11 13 15 18 18 23 24 19 25 33 28 24 15 15 14 19 22 19 23 20 23 22 23 24 26 24 18 22 19 15 28 14 19 16 14 13 11 14 19 21 21 27 26 21 24 21 23 23 26 23 24 30 28 32 26 31 29 31 29 29 34 33 28 35 31 39 28 26 23 22 16 18 19 21 22 24 25 29 29 29 32 32
21 22 11 11 17 15 14 13 17 18 22 22 20 27 19 21 17 13 11 11 15 15 17 19 16 22 20 18 20 25 22 22 18 22 19 14 23 20 15 16 23 12 11 13 19 14 22 15 27 18 23 24 31 24 26 25 26 27 28 31 25 26 20 27 27 31 32 33 32 34 35 30 20 20 18 18 17 15 16 19 21 23 24 26 28 29 28 30
19 19 14 14 18 18 17 17 19 22 23 23 22 26 23 21 16 14 14 10 19 15 23 20 20 21 17 21 19 17 25 23 22 24 22 22 25 26 15 15 13 17 14 16 20 25 26 25 23 23 27 28 25 20 21 25 27 25 25 27 26 28 29 29 34 27 33 35 33 28 35 30 18 16 17 15 15 16 17 19 20 21 24 26 27 27 27 27
20 19 16 17 16 18 19 19 25 21 25 21 22 20 20 15 20 22 22 17 15 23 15 19 18 20 22 22 20 22 26 22 22 22 18 22 14 23 16 10 10 12 19 19 20 21 16 21 24 24 26 27 24 24 24 25 26 27 30 32 28 29 31 33 35 28 30 35 32 32 35 32 19 23 18 17 17 18 18 19 20 22 22 22 26 28 27 26
17 21 21 14 15 15 17 21 20 23 22 24 20 23 21 20 17 20 22 18 22 17 20 18 17 19 18 23 20 22 21 31 21 24 22 22 25 23 22 10 17 18 16 23 23 17 13 21 24 28 28 30 32 31 31 29 29 27 29 31 31 32 29 31 32 27 30 27 29 29 35 33 19 19 15 22 18 18 19 19 22 22 22 21 24 26 27 26
21 24 21 14 12 13 18 15 13 15 21 19 17 21 15 21 19 20 20 18 22 17 18 18 18 17 20 15 18 22 15 23 17 26 30 23 33 20 11 11 9 18 18 18 17 20 17 18 27 27 29 28 25 25 28 23 29 28 25 20 22 26 25 25 25 20 31 33 32 34 44 30 19 19 23 20 21 22 23 23 23 27 22 22 22 24 25 25
27 25 24 19 12 15 19 16 19 18 20 19 24 21 21 19 17 19 19 20 18 19 16 21 21 19 24 16 20 19 20 23 32 22 26 23 27 16 10 10 12 17 15 22 17 18 18 17 20 23 24 23 22 19 18 15 17 21 19 22 22 21 20 22 24 24 32 28 29 36 41 32 29 26 29 34 32 31 29 28 27 26 25 25 23 22 24 23
18 15 16 14 16 14 21 15 17 19 20 19 16 20 20 26 24 20 15 21 20 21 23 22 21 21 22 18 19 19 22 21 26 27 24 24 28 27 18 16 10 17 18 15 17 16 19 20 22 24 27 29 26 25 23 24 24 26 22 25 28 24 25 25 26 31 35 29 33 33 36 34 31 31 32 34 36 38 39 35 32 30 26 25 23 23 21 21
22 18 18 16 24 20 19 17 19 13 15 16 15 15 17 17 20 21 13 19 13 18 22 18 20 22 20 19 20 22 22 23 24 29 28 26 26 34 26 19 18 19 18 16 12 18 21 25 22 25 29 32 29 29 29 24 29 31 31 32 30 30 29 29 30 38 27 33 40 35 27 35 34 33 33 34 34 34 34 35 37 34 28 27 28 25 20 23
18 16 16 16 15 22 22 15 27 19 20 19 20 20 20 20 19 22 18 16 15 17 19 17 21 22 22 22 21 29 23 26 27 30 27 28 29 26 37 26 28 22 23 20 20 25 24 24 21 24 26 27 27 28 27 29 28 31 31 32 32 30 29 33 33 35 32 36 41 34 33 37 36 34 34 36 37 37 36 34 32 34 38 33 29 28 30 26
20 22 17 21 17 17 22 25 24 21 23 21 25 19 21 20 22 21 21 21 21 23 21 18 18 22 24 25 26 29 24 27 24 26 29 25 26 29 32 26 26 27 26 21 22 22 27 28 23 25 28 28 26 27 25 28 30 32 34 35 34 33 32 32 35 34 37 37 37 40 39 41 39 37 36 37 34 36 37 33 33 32 30 28 30 30 31 28
19 19 21 23 20 23 21 19 19 18 19 16 17 16 21 19 19 18 19 20 21 21 22 28 27 28 30 31 27 30 23 24 25 30 21 24 28 28 28 25 25 22 27 27 22 14 20 24 18 23 30 30 28 27 28 29 31 38 34 35 34 32 32 32 35 34 34 37 37 38 41 45 37 32 34 32 32 33 34 32 31 26 28 27 27 28 28 27
17 16 19 21 23 17 19 17 18 18 19 16 20 18 19 19 19 19 23 20 23 25 24 26 25 25 24 24 23 24 24 25 24 23 25 24 28 22 25 23 25 24 24 30 22 19 17 22 21 25 27 33 27 26 26 28 29 34 38 37 34 30 34 33 40 30 32 34 32 33 38 43 31 29 30 28 28 29 29 27 26 26 25 26 27 28 28 27
19 16 16 17 22 16 22 18 20 19 19 19 15 18 20 20 23 26 29 21 21 21 23 23 21 20 20 20 25 20 23 24 25 24 24 27 28 26 23 26 24 26 23 25 18 27 22 25 23 21 28 33 28 25 25 25 30 38 44 37 32 33 35 37 36 32 33 30 35 34 38 33 31 28 29 27 26 27 28 27 26 26 27 28 29 28 28 27
Wind_Speed
20 21 22 21 21 21 21 21 21 20 21 22 21 20 20 19 19 18 17 16 16 16 16 16 15 13 13 11 11 12 11 8 11 10 12 15 5 12 7 13 12 12 8 6 9 9 8 8 9 9 9 8 6 10 4 5 7 3 6 5 5 3 10 4 12 6 9 8 2 10 6 8 6 5 4 8 5 4 6 5 14 17 16 10 11 13 13 14
20 21 21 22 22 21 21 20 20 21 21 21 22 22 21 21 18 18 17 17 17 17 16 16 15 14 12 10 9 8 9 10 12 14 18 5 14 10 13 12 12 11 9 9 11 10 10 7 7 6 9 8 2 2 5 5 2 6 5 3 4 6 1 2 5 4 4 9 9 10 9 9 8 7 2 6 4 7 5 9 8 9 5 9 9 12 12 12
21 21 21 21 21 21 21 20 20 21 21 21 22 22 22 21 20 19 19 18 17 17 17 15 14 13 12 9 7 7 7 10 13 16 16 11 14 13 12 12 12 11 11 11 11 11 12 2 7 8 8 9 5 6 5 6 8 7 6 3 3 8 4 5 1 11 11 6 11 6 5 6 10 8 5 9 5 4 4 10 8 9 8 9 11 11 11 11
20 20 21 21 21 21 21 21 21 21 20 21 21 21 22 21 21 20 18 18 17 17 16 16 14 12 11 8 5 7 8 11 12 7 9 11 14 13 12 12 12 11 10 12 12 11 6 10 8 7 11 10 4 7 4 7 8 9 6 9 7 13 7 9 6 6 7 9 9 8 8 8 11 9 9 10 9 9 6 3 8 11 14 13 13 12 12 11
22 21 21 21 21 22 22 21 21 21 21 21 21 22 21 20 20 20 19 18 18 17 16 15 14 12 10 7 7 6 7 9 6 11 9 10 12 14 11 11 11 11 11 10 11 12 11 9 4 10 8 11 8 6 6 5 10 6 8 11 11 5 12 9 11 7 9 1 5 10 11 11 8 7 11 10 9 6 4 3 7 9 11 11 11 13 11 11
22 22 22 22 22 22 22 22 22 22 22 21 22 22 21 20 19 19 18 19 18 17 15 14 13 11 8 4 7 7 5 3 5 8 13 12 13 11 12 9 10 10 10 12 11 9 8 8 9 8 9 7 10 6 10 10 8 7 8 13 13 9 6 7 7 7 9 10 10 9 10 9 9 10 9 9 9 9 11 3 11 12 14 13 13 10 11 12
22 23 23 23 22 23 23 23 23 23 22 22 22 21 20 21 20 19 19 19 19 17 15 12 11 10 7 3 8 7 9 12 7 10 14 13 12 12 10 8 5 8 11 12 11 9 9 11 9 9 10 11 9 7 2 9 4 5 9 10 10 9 9 7 9 8 11 13 12 10 12 11 10 11 7 10 8 11 7 3 7 12 9 14 13 11 11 11
23 23 22 22 22 23 23 23 23 23 23 22 22 21 21 21 20 20 19 18 17 16 13 11 9 8 6 6 6 8 10 12 7 14 13 14 12 11 9 9 10 9 11 13 11 10 10 10 10 10 9 6 7 6 4 4 8 9 9 11 12 5 8 11 11 12 11 11 11 14 10 10 10 11 9 11 9 11 10 2 8 5 6 9 9 6 4 7
21 21 22 22 22 23 23 24 24 23 23 23 23 22 21 20 20 20 19 18 16 14 12 10 8 5 3 6 8 10 8 8 16 15 13 14 14 13 13 10 12 11 11 12 13 12 9 9 10 5 9 11 9 10 9 9 9 10 10 11 11 11 12 11 12 12 13 10 10 9 11 9 11 13 13 2 6 11 12 8 4 7 3 10 13 12 11 8
23 23 22 22 22 23 23 24 24 24 23 24 23 23 21 20 19 19 18 18 15 13 10 7 6 5 4 6 9 10 2 10 13 14 16 16 15 14 15 12 12 13 12 12 12 12 11 10 11 13 9 11 9 10 10 12 12 12 11 9 11 12 14 13 14 12 12 10 7 10 10 11 11 11 6 6 8 6 6 4 5 6 5 9 7 7 6 4
23 22 22 23 23 23 24 24 25 25 25 25 25 23 21 20 20 17 19 18 14 12 8 5 3 4 7 9 9 9 7 12 10 12 15 14 15 15 14 14 12 12 13 12 12 11 12 11 6 7 8 7 8 11 7 9 10 12 10 12 14 15 15 15 15 17 13 11 8 4 9 10 12 9 7 6 10 6 5 9 6 6 7 9 8 7 8 8
23 24 23 24 25 24 26 26 26 25 26 25 24 24 23 22 20 18 18 16 14 10 6 5 6 5 8 10 10 11 7 4 9 10 11 13 12 15 14 14 13 13 13 13 12 10 11 10 8 8 9 9 11 12 10 8 10 12 13 13 15 16 15 15 15 14 10 11 5 4 9 14 14 15 11 8 8 1 7 8 8 8 7 13 11 10 10 9
24 24 24 26 26 26 27 26 27 26 25 25 26 25 23 22 19 18 16 14 7 4 3 4 5 6 6 8 13 19 10 6 5 9 10 10 10 11 11 13 14 13 13 13 12 11 12 11 9 12 11 11 12 10 13 19 14 13 12 11 15 14 16 18 15 13 11 7 6 3 9 8 5 6 4 3 6 5 8 7 8 6 6 11 12 11 9 9
25 25 25 26 26 27 27 26 27 27 27 25 27 26 24 23 19 17 14 11 12 8 4 5 6 6 7 10 9 4 3 2 4 7 10 10 11 12 12 12 12 12 11 13 13 11 12 6 5 12 11 13 11 13 16 12 13 12 13 11 10 11 10 16 14 16 12 4 6 9 9 8 10 3 1 4 4 8 8 8 7 8 7 8 12 11 10 12
24 25 26 25 25 25 26 26 26 26 27 27 28 27 25 24 18 15 13 11 8 7 2 3 5 4 7 9 15 2 6 3 9 10 9 12 12 11 12 12 13 12 11 12 11 9 6 7 9 9 9 11 14 15 14 12 10 11 11 11 11 13 13 8 2 7 8 8 11 6 8 9 11 8 9 10 10 8 6 5 9 6 6 8 14 11 8 9
25 25 26 25 25 26 26 27 25 27 28 29 28 29 28 22 18 14 10 10 6 2 5 5 8 9 9 12 2 4 5 10 13 12 11 12 12 12 11 11 10 11 12 11 8 8 8 8 11 9 12 12 14 11 11 10 10 11 12 10 10 11 14 11 15 7 13 8 6 8 9 9 11 12 9 6 11 12 11 5 8 8 8 8 10 11 11 10
26 24 24 25 25 25 26 26 27 27 28 29 28 29 27 19 13 9 8 5 4 6 6 5 4 10 6 3 1 8 10 12 10 10 12 12 12 13 10 10 10 11 11 12 9 9 11 9 8 11 11 11 11 11 10 10 10 10 9 9 8 9 9 7 8 12 14 13 8 10 9 10 10 11 10 15 12 14 6 9 7 7 7 5 6 10 10 9
24 25 25 25 26 26 26 27 27 27 28 29 29 27 25 23 4 5 8 5 6 6 7 9 8 8 13 16 13 10 5 10 9 9 12 11 12 12 12 11 9 10 10 10 12 13 9 10 8 11 9 10 11 10 10 10 9 8 9 9 10 11 14 13 7 7 9 9 11 4 7 10 12 13 15 16 11 10 8 8 6 6 5 6 8 9 6 9
24 24 26 26 26 27 27 26 28 27 26 29 29 25 9 2 4 6 6 4 4 4 4 6 7 8 4 5 9 12 8 2 7 6 12 12 12 11 12 10 8 10 10 10 8 13 9 10 10 10 12 10 11 12 12 14 15 16 15 12 14 12 11 12 11 12 12 13 13 4 7 9 13 15 14 13 13 14 8 13 10 8 7 6 8 8 7 8
25 25 25 27 26 27 27 26 27 27 26 20 16 14 3 5 1 5 1 8 10 12 15 11 10 12 15 13 12 3 12 8 6 8 9 11 9 12 13 10 10 10 11 10 9 13 8 11 10 11 11 13 15 15 16 16 16 17 16 16 13 13 13 13 14 15 12 14 14 14 10 9 11 12 13 14 9 14 15 13 7 7 7 7 6 9 8 5
25 26 27 26 28 27 26 26 28 29 26 14 14 9 7 9 10 7 14 14 15 16 16 17 17 16 15 12 10 2 6 10 10 8 11 10 12 10 11 10 11 11 12 13 12 7 13 12 12 14 16 16 16 15 16 17 17 16 13 13 13 13 13 13 14 12 12 12 13 16 13 11 12 14 15 15 13 10 11 12 10 11 5 5 7 7 9 10
25 26 27 27 27 28 27 27 29 27 28 11 9 8 6 8 4 6 7 11 14 16 18 20 19 19 15 16 14 11 8 10 9 9 10 11 12 11 9 12 12 12 10 12 11 11 10 13 13 15 15 16 15 15 16 17 16 12 11 11 12 12 13 15 14 13 14 11 11 15 15 13 13 14 12 12 13 11 11 13 16 3 8 7 8 8 6 7
25 26 26 27 27 28 28 30 29 28 10 9 7 9 7 7 6 6 7 11 17 15 15 15 15 16 15 11 11 11 13 13 12 10 11 13 12 13 9 11 12 12 12 12 12 10 11 11 16 17 13 14 14 15 15 14 11 11 11 11 11 12 12 10 10 14 14 12 11 8 10 10 13 13 14 14 15 13 10 12 16 12 10 7 6 6 7 8
26 26 27 27 27 28 30 28 30 16 4 9 6 7 6 7 7 9 10 8 11 15 12 12 14 9 10 8 8 10 11 11 12 13 12 13 12 12 12 13 13 12 12 14 16 13 13 13 15 16 17 11 14 14 13 9 10 12 14 13 12 13 13 12 11 14 18 17 15 13 9 10 12 14 11 9 8 12 9 15 14 8 3 3 5 8 7 9
26 26 27 27 28 28 31 27 9 10 13 14 5 7 8 8 7 8 9 7 8 9 9 4 1 7 4 7 8 7 8 10 13 11 11 15 13 10 12 10 10 13 14 14 15 15 17 17 16 18 19 19 8 11 14 12 12 11 14 14 14 16 16 15 15 14 10 12 11 12 11 10 10 10 5 6 8 11 10 9 9 9 4 8 10 5 3 7
25 26 26 27 28 27 34 10 7 14 17 5 9 10 10 8 7 8 5 5 8 3 6 7 5 4 3 8 5 9 7 10 10 11 11 16 12 12 7 11 8 13 13 15 13 10 12 14 16 17 16 17 18 14 13 12 11 11 10 14 15 16 15 13 13 11 9 10 9 11 13 8 6 11 9 7 10 13 10 7 10 10 5 10 11 9 9 12
24 25 26 26 26 23 13 5 13 17 9 6 11 10 9 8 6 8 4 4 7 6 5 9 7 3 3 6 9 5 8 4 6 6 8 13 13 10 13 11 10 9 10 8 7 9 10 15 16 17 17 15 13 10 8 12 12 12 12 15 15 15 12 12 12 11 11 11 14 16 12 11 10 10 16 8 9 11 10 7 6 7 10 12 12 10 10 7
25 25 25 25 27 16 7 10 12 10 9 10 11 10 9 7 9 4 4 3 2 2 5 6 4 5 5 9 10 10 4 4 6 9 7 12 9 9 10 13 13 13 11 10 13 9 14 16 16 15 15 13 13 11 12 14 13 11 12 11 13 16 15 16 14 12 12 12 11 11 13 11 9 9 9 6 8 9 9 3 2 7 7 6 4 11 9 5
25 25 24 24 26 31 11 7 9 10 10 11 11 11 8 9 7 4 3 3 1 4 6 2 1 5 6 5 8 9 10 9 9 10 7 5 8 8 9 13 14 15 17 16 14 11 10 14 17 16 13 11 11 12 14 14 13 13 12 12 13 14 13 13 12 12 12 12 11 11 11 11 10 6 8 3 6 2 8 5 8 6 5 6 7 11 10 7
25 24 24 21 20 11 1 7 10 13 11 11 11 12 12 8 5 4 1 5 5 1 3 5 5 6 6 8 9 11 12 9 7 9 6 6 9 10 12 10 8 9 12 16 19 16 16 12 15 6 10 9 10 13 14 15 14 14 13 14 14 14 13 13 12 12 12 9 12 14 16 14 12 8 8 6 2 3 1 4 2 5 16 14 15 15 9 4
25 24 23 17 9 8 10 8 1 9 10 10 12 13 7 4 4 3 3 2 5 4 3 9 5 3 8 8 9 9 12 7 9 7 7 9 9 9 7 10 10 10 10 11 13 16 17 16 13 10 9 11 13 16 15 14 14 14 11 11 12 13 11 11 10 11 8 10 11 15 14 13 12 3 3 8 10 4 5 9 17 16 16 16 14 13 17 17
28 27 24 14 11 8 6 7 13 11 11 12 11 7 4 3 5 4 4 3 11 7 7 7 2 6 7 6 10 7 7 11 8 6 8 8 9 9 10 9 7 8 11 9 10 10 14 13 12 16 10 15 11 11 11 13 13 14 13 11 11 9 7 7 8 6 7 10 10 11 13 7 5 4 11 5 11 16 16 12 13 14 15 13 13 13 14 11
29 29 28 16 11 7 10 11 11 10 10 11 8 4 4 2 3 6 9 7 2 2 3 5 11 4 7 7 11 11 10 9 5 9 8 10 11 10 16 14 11 12 8 4 9 8 8 10 11 9 11 8 13 10 7 10 11 12 10 7 9 8 6 6 8 7 7 11 3 9 10 10 4 6 2 7 13 12 15 12 12 15 13 11 11 12 11 11
30 30 13 9 8 9 8 8 8 9 10 7 6 4 4 2 4 6 11 8 10 1 8 8 8 5 7 10 13 16 9 7 11 10 9 8 8 9 10 11 17 16 8 9 9 7 7 8 10 9 7 9 13 11 8 10 12 11 9 10 7 9 3 4 6 5 8 7 11 5 5 4 4 6 12 3 7 14 11 13 11 11 12 11 12 13 13 13
33 24 12 10 9 11 11 9 6 6 7 6 5 5 3 5 6 9 8 6 5 10 9 13 10 10 11 12 12 15 10 7 7 8 10 9 8 10 9 9 3 4 3 6 5 5 11 10 11 8 11 4 11 13 10 11 11 10 10 8 9 9 4 11 6 8 10 9 8 7 6 3 6 5 7 6 7 9 11 10 14 12 11 12 12 12 11 11
21 8 11 7 6 1 2 4 2 3 5 5 5 4 7 6 5 6 3 4 8 7 12 13 10 12 11 10 10 15 8 7 7 10 9 9 11 12 8 4 6 3 1 4 1 6 5 8 6 11 15 14 12 12 10 4 5 3 6 7 7 6 10 5 6 10 11 9 9 5 10 10 9 10 8 3 3 9 10 10 12 13 12 11 10 10 10 10
10 12 7 5 3 1 3 3 3 4 5 6 5 6 8 8 10 13 5 8 9 10 8 8 6 8 9 8 6 8 6 4 10 10 9 8 11 16 6 4 1 3 4 2 4 6 8 9 11 10 13 10 9 13 14 7 8 9 9 8 11 12 13 7 7 4 6 9 6 6 11 11 5 4 4 7 8 9 8 8 10 10 12 9 8 9 9 9
11 8 10 11 5 3 3 4 4 5 6 6 6 8 8 11 10 9 6 6 7 8 9 7 7 8 9 11 9 8 10 6 3 3 7 7 7 9 4 4 6 5 3 3 6 5 7 10 10 15 15 11 11 13 14 15 14 14 13 10 10 4 8 5 3 6 5 7 6 9 13 12 10 2 3 5 8 7 7 6 6 8 9 8 8 8 9 9
9 8 7 5 2 4 4 4 5 6 6 7 7 6 8 12 12 13 7 6 5 8 8 8 9 7 11 9 11 13 14 8 7 9 7 1 9 3 9 7 4 1 2 7 7 6 8 10 9 10 10 10 11 9 9 9 10 11 14 15 11 9 9 9 4 8 8 8 7 10 10 8 3 3 7 11 7 6 7 4 4 6 7 7 7 7 8 8
7 6 0 3 4 3 4 4 6 6 6 7 7 8 7 10 7 4 2 5 4 5 5 9 8 9 9 10 9 11 11 13 8 9 8 5 10 7 7 5 11 2 1 5 9 7 8 5 10 6 11 13 12 8 9 7 9 11 12 13 10 6 7 9 6 10 8 7 7 5 7 8 1 6 8 7 10 6 6 7 6 6 4 6 8 6 6 8
7 5 0 2 5 4 5 5 6 7 8 9 11 12 13 7 7 5 7 1 4 5 9 9 8 8 8 9 9 8 7 8 9 8 7 10 9 7 4 7 4 7 5 5 7 8 6 9 9 8 9 12 10 7 12 14 14 12 8 7 6 7 8 9 8 7 9 7 5 6 7 8 5 2 5 5 6 9 7 11 7 10 9 9 8 6 5 6
6 5 4 1 1 4 4 6 6 7 7 9 9 6 2 5 9 12 11 9 5 6 6 8 9 9 9 9 10 10 10 9 9 9 8 8 8 10 1 2 3 4 4 5 8 5 4 5 8 7 9 11 13 14 14 15 16 13 8 9 8 8 7 7 7 7 9 12 15 12 8 6 8 4 6 8 8 8 8 7 3 1 6 5 9 7 5 4
5 7 12 7 2 6 4 7 8 8 9 9 11 13 11 7 7 8 10 8 8 8 6 6 6 6 6 7 9 10 11 10 11 10 11 11 13 8 11 3 10 5 4 7 11 7 9 4 8 11 12 15 18 18 20 19 17 14 11 12 12 11 11 11 10 10 9 9 7 6 7 4 3 4 4 7 3 2 3 7 8 6 7 4 8 8 6 5
8 9 7 5 1 3 5 3 3 5 7 9 8 11 6 8 9 10 8 9 8 6 8 6 8 7 9 7 8 9 7 6 5 11 11 11 12 6 3 5 3 3 5 6 6 7 4 3 9 10 9 10 12 12 13 12 12 11 10 8 11 12 15 14 12 5 5 9 12 8 11 6 4 3 9 5 8 0 4 5 8 8 5 5 7 7 5 7
9 7 9 7 4 3 5 5 7 7 9 10 11 12 10 8 6 7 8 10 9 10 6 8 9 9 10 9 10 10 9 10 10 12 15 13 11 5 4 0 4 3 5 9 10 7 5 7 7 8 10 10 8 6 4 2 6 8 6 9 11 12 12 8 5 5 6 8 13 9 9 10 8 10 6 7 7 6 5 7 9 8 4 4 7 4 5 5
5 4 4 4 5 4 7 6 6 6 8 8 8 9 10 11 9 11 7 9 7 10 10 10 10 12 12 11 10 9 11 10 11 9 9 10 12 9 8 10 4 5 10 8 5 5 4 7 10 11 11 11 9 9 4 9 9 8 7 9 11 10 11 8 6 6 8 8 10 11 14 13 13 11 11 12 10 8 7 8 8 10 9 3 3 3 4 4
6 5 5 4 10 6 7 7 6 2 4 8 4 6 9 8 9 9 7 5 3 5 6 7 9 8 7 10 10 11 11 13 14 16 16 16 14 15 17 11 6 11 14 8 7 3 6 9 12 14 17 16 17 18 19 13 13 13 13 13 12 14 12 12 6 8 8 8 11 10 12 11 12 12 12 13 13 13 12 12 13 12 12 11 12 10 8 5
4 5 7 4 3 7 9 5 13 9 11 10 8 9 10 11 10 10 8 7 5 8 8 5 8 10 12 13 12 8 11 14 15 13 15 15 16 15 15 16 16 8 14 8 6 5 7 8 12 14 17 17 16 16 16 16 13 13 15 16 16 15 15 14 13 14 13 9 12 13 14 14 13 15 15 15 15 15 16 15 14 14 14 14 14 14 12 9
6 6 4 11 5 7 10 14 14 11 12 11 9 9 11 12 13 10 9 10 9 11 11 6 8 10 12 13 12 11 13 10 8 12 12 10 11 13 12 15 16 9 13 9 6 6 7 10 12 14 17 16 16 16 14 15 15 15 17 18 17 16 14 14 15 16 17 16 17 19 21 20 18 19 18 16 13 15 15 12 11 15 16 9 11 10 11 13
6 6 6 10 8 9 10 9 9 9 8 8 6 8 8 9 11 9 8 9 7 11 11 14 15 12 14 18 17 12 10 13 11 7 12 14 13 10 10 12 11 12 10 9 9 6 5 5 6 11 13 16 17 17 15 15 15 17 18 19 19 18 16 15 15 14 14 16 18 20 21 20 15 14 17 15 13 14 14 14 15 16 8 6 9 8 9 10
5 4 4 7 8 6 8 8 7 8 7 7 7 9 10 10 11 10 10 10 13 10 9 16 17 12 12 13 14 12 10 11 14 14 12 12 11 11 7 7 14 12 12 9 4 1 7 5 7 9 10 14 14 13 14 16 16 19 21 22 20 18 16 16 12 12 13 15 16 17 17 16 13 12 13 14 14 15 12 10 10 10 8 7 8 8 8 10
6 7 6 6 7 7 9 9 10 8 7 7 5 7 7 11 14 15 12 9 7 9 7 12 13 10 9 10 12 10 13 13 14 16 12 12 13 14 11 12 13 11 9 9 8 9 6 7 6 8 12 14 15 14 16 16 16 17 20 16 17 17 17 17 16 17 16 12 12 10 14 13 13 11 13 15 15 15 14 11 10 11 9 7 7 9 10 10
Wind_Direction
353 352 350 348 346 344 341 339 337 333 331 332 330 327 328 327 325 322 320 313 311 307 303 300 299 297 295 299 308 314 312 294 296 260 237 246 120 125 101 122 152 157 153 226 236 242 219 224 225 209 225 229 183 239 99 232 262 184 246 336 286 340 287 19 321 300 5 285 355 264 25 279 303 2 124 277 271 336 282 228 50 37 9 55 110 121 132 141
353 351 349 346 344 342 340 337 334 332 331 329 328 327 326 326 323 321 316 315 312 307 301 298 296 294 294 295 308 311 308 285 274 264 249 204 138 142 144 152 153 162 175 230 235 224 215 185 227 189 234 226 126 212 147 193 254 244 265 232 289 261 309 276 250 303 217 268 2 341 290 326 312 23 203 291 158 209 296 60 93 110 164 119 128 130 141 149
353 350 347 344 342 340 338 335 333 331 329 327 327 326 326 322 323 321 316 313 310 307 302 295 295 293 291 295 298 295 290 290 268 254 245 140 144 144 152 163 161 167 190 221 223 239 235 135 182 210 209 247 175 181 195 190 195 197 258 232 225 248 292 242 153 290 26 330 268 288 319 346 308 309 263 247 286 269 319 109 152 147 166 145 141 149 151 167
351 348 345 344 341 339 337 335 332 329 327 326 323 323 322 322 321 318 314 312 309 307 303 295 291 291 289 289 289 294 270 273 269 246 131 148 143 147 161 164 168 182 215 244 268 261 256 298 214 214 268 259 170 304 212 160 245 147 237 231 278 358 328 295 78 292 325 348 323 312 317 293 252 265 344 339 315 300 92 327 277 162 157 160 161 160 166 176
351 348 346 343 341 338 335 334 332 329 326 323 322 321 321 318 317 316 313 312 311 307 302 297 290 286 284 283 291 268 288 279 71 99 137 149 146 149 159 179 172 198 219 239 248 261 268 241 221 253 260 271 186 190 237 205 217 299 278 305 339 273 250 314 26 338 260 3 316 255 252 268 333 314 257 275 317 328 142 196 92 125 156 157 172 169 173 182
351 348 346 343 340 337 334 332 330 327 324 322 321 320 318 316 314 312 313 312 311 308 302 295 290 279 279 264 265 239 266 349 140 149 145 161 147 150 163 176 199 230 221 232 250 247 244 224 254 249 272 274 261 234 168 267 89 273 233 243 235 226 294 310 281 285 349 300 291 307 285 313 306 294 302 282 286 318 332 220 122 135 133 167 171 168 178 185
350 348 346 343 339 336 334 331 328 325 322 320 318 318 316 316 313 314 314 315 311 308 304 296 288 281 278 283 240 237 240 264 267 137 149 155 150 151 158 175 192 234 245 244 243 240 208 253 244 241 235 255 269 265 211 250 221 236 286 298 308 294 276 313 303 289 254 246 262 305 322 295 289 284 311 301 272 259 268 280 104 128 136 156 158 172 178 191
349 347 345 342 339 336 333 330 327 323 321 318 316 315 318 314 314 313 315 313 311 305 307 301 286 278 273 237 239 237 234 254 149 147 163 146 151 150 152 185 198 220 232 233 235 235 238 240 260 287 285 274 3 309 39 294 246 256 254 250 262 319 322 278 271 282 313 304 271 251 261 294 310 299 298 281 319 331 310 246 125 101 145 140 111 99 303 254
348 346 345 342 339 336 332 329 326 323 320 318 316 315 315 313 312 313 312 315 311 305 304 296 278 263 222 287 264 289 298 100 135 152 153 157 158 160 176 191 203 212 222 232 239 240 240 239 244 217 293 312 323 326 307 272 266 231 264 313 326 286 276 283 285 275 260 257 262 271 256 267 270 278 268 306 262 228 225 243 144 142 250 106 131 159 183 252
347 346 343 340 337 334 331 327 324 323 320 318 316 315 314 311 311 309 312 312 308 302 301 292 276 190 217 234 263 269 108 130 134 153 164 167 160 164 190 208 190 209 221 232 234 240 243 273 311 338 327 295 288 272 275 293 304 322 290 289 286 293 291 290 285 280 265 268 297 276 279 272 277 273 259 222 203 302 321 277 156 163 138 123 133 160 155 209
347 344 341 338 336 333 330 328 324 321 320 319 315 314 313 314 312 309 310 308 303 297 295 277 220 210 236 237 269 275 113 151 160 160 174 168 164 172 194 213 198 208 225 233 240 235 259 269 322 302 287 269 313 278 278 265 285 285 306 285 275 274 269 264 260 258 259 259 269 288 294 288 271 267 257 300 292 123 289 284 192 175 175 154 142 169 165 191
346 344 341 339 337 334 331 328 325 323 319 316 314 313 314 313 311 308 308 306 296 287 271 245 178 230 269 270 259 257 143 224 160 167 172 179 177 187 197 206 207 211 219 236 225 246 256 269 276 274 276 335 275 315 271 6 316 300 303 290 278 273 270 262 248 246 244 232 223 287 295 268 250 252 193 201 286 141 249 256 274 201 194 152 164 183 174 192
346 344 342 340 337 334 331 328 326 322 319 314 314 314 312 311 306 306 305 302 302 327 253 220 195 240 273 265 245 245 239 227 184 165 181 191 194 196 203 206 217 218 224 241 246 220 238 243 260 269 269 270 293 288 326 307 291 300 280 277 276 271 263 244 236 246 238 219 244 140 267 311 293 331 342 175 147 275 267 245 245 230 230 159 164 179 175 183
345 343 342 339 336 333 330 327 325 322 319 314 313 313 311 309 302 299 293 285 290 289 252 168 232 239 243 260 272 15 291 195 216 191 196 196 206 200 205 207 225 227 231 247 260 286 337 10 298 280 291 284 286 297 285 289 291 277 281 275 281 286 277 275 204 191 220 174 189 212 251 264 304 320 210 135 200 227 243 266 234 232 220 150 161 171 178 192
344 342 340 336 333 330 328 325 323 321 318 315 313 311 309 307 299 291 283 279 261 251 120 182 222 251 226 251 252 258 11 274 245 213 206 205 210 209 205 208 218 230 237 240 256 273 260 288 285 266 261 266 266 264 266 263 266 263 262 252 240 240 242 281 54 178 226 164 198 235 251 263 249 294 162 198 205 228 258 238 297 278 224 168 162 169 181 207
343 341 338 335 331 328 326 324 320 321 319 316 314 311 305 302 296 288 269 267 303 341 207 243 203 228 287 279 343 25 229 222 230 219 211 217 207 227 196 215 224 229 235 243 253 261 245 251 255 267 275 268 264 269 274 270 258 256 249 258 283 313 326 309 174 200 177 270 186 219 278 293 300 262 270 203 207 210 210 238 195 246 253 219 175 156 189 197
342 339 336 332 329 325 324 322 321 319 318 316 315 307 305 294 289 268 260 271 259 195 229 258 250 199 260 79 173 236 224 222 239 204 214 207 215 224 208 205 218 227 224 245 237 236 254 245 238 250 250 263 273 280 289 282 279 273 273 269 257 248 254 260 145 191 185 170 238 231 248 254 276 307 296 284 251 214 263 285 274 221 211 213 192 183 189 185
340 337 334 331 328 325 323 322 321 318 318 317 312 302 294 295 253 305 240 215 231 218 224 247 266 291 241 254 263 258 218 210 190 206 208 195 221 216 232 212 208 226 230 223 228 244 225 242 244 261 268 254 238 242 252 262 270 280 286 298 306 313 311 318 320 315 325 248 232 263 269 264 253 257 257 262 265 242 212 237 220 258 244 180 200 193 210 194
339 337 334 332 327 326 323 323 321 317 321 318 304 294 265 177 191 240 261 188 198 184 215 177 215 205 347 339 225 256 240 151 162 211 195 205 197 229 227 241 213 214 224 226 222 217 220 246 242 249 249 248 251 249 247 255 264 273 292 290 294 298 302 293 295 290 297 316 306 265 287 296 298 293 298 294 298 305 237 191 201 202 241 233 192 194 196 216
338 336 333 331 328 325 323 321 320 318 324 329 327 324 246 335 259 170 222 306 265 271 288 292 217 249 278 275 266 98 51 94 234 203 222 195 202 211 233 219 221 227 238 224 231 216 219 232 235 239 244 249 257 256 258 267 275 285 281 284 292 293 285 285 280 294 289 289 281 282 275 278 287 294 292 297 307 289 278 268 237 222 207 207 204 190 193 201
336 335 333 330 328 323 323 322 320 319 322 310 304 313 28 357 353 343 334 289 272 267 263 262 259 260 258 268 271 109 242 218 222 219 225 165 219 206 213 221 222 230 223 239 247 234 204 237 240 244 247 251 253 249 247 251 253 263 285 295 287 282 280 277 275 266 282 280 268 261 251 256 276 279 269 275 288 281 293 295 213 177 205 192 196 214 202 192
335 333 332 329 326 324 322 323 317 317 315 287 271 359 34 45 347 324 319 302 298 278 269 265 266 262 260 260 269 287 274 279 202 222 200 184 197 220 183 210 218 233 225 225 238 251 239 230 238 251 251 253 256 263 269 270 282 295 292 292 289 280 282 279 271 267 266 263 281 287 287 290 287 284 286 283 266 262 274 281 288 261 168 198 216 197 197 215
334 333 331 328 325 323 324 320 316 312 313 313 5 15 27 342 348 314 301 279 277 269 259 249 243 241 248 243 250 227 242 231 251 205 205 180 198 213 222 204 225 234 243 234 232 233 245 249 243 238 243 238 241 260 271 279 279 276 270 257 257 270 266 267 264 271 257 252 260 243 279 282 279 271 271 262 254 243 218 275 263 243 163 180 228 222 192 220
334 332 330 328 325 324 321 319 310 294 237 305 349 29 5 347 341 336 308 281 296 302 261 242 231 233 236 249 187 218 220 237 231 243 188 181 211 192 237 239 228 233 241 243 241 245 247 251 256 256 242 268 295 297 281 253 251 246 244 250 256 261 264 268 290 297 304 299 309 311 273 253 245 256 268 274 307 307 241 220 235 144 119 326 220 222 217 195
331 331 328 326 327 325 319 319 307 347 338 306 96 5 6 343 352 347 316 285 238 241 266 176 304 217 103 70 117 233 210 243 235 238 204 181 202 218 222 234 254 243 237 236 252 254 253 256 273 284 290 278 235 248 255 267 280 280 273 275 279 283 288 291 295 288 291 298 292 281 264 260 279 266 250 334 311 286 314 314 308 298 160 191 240 208 227 270
330 329 328 326 325 333 311 302 8 335 311 351 1 354 342 342 351 337 311 282 287 151 175 189 195 146 30 191 179 233 234 238 210 218 243 178 203 236 228 231 227 251 250 255 254 258 267 268 249 247 251 257 249 243 263 274 273 275 277 283 295 307 310 315 299 295 276 269 261 253 263 269 247 253 235 230 278 286 275 245 268 288 244 194 199 219 208 203
329 326 327 326 323 339 340 31 332 311 319 37 355 340 332 327 360 326 278 233 263 139 210 107 196 120 222 136 201 178 236 172 136 216 248 150 211 177 255 257 227 237 273 295 288 257 249 246 266 286 289 285 289 271 248 246 257 264 276 268 264 266 273 280 277 269 274 271 272 277 285 301 298 288 281 250 253 272 274 292 335 312 287 283 293 205 191 205
327 326 325 325 319 323 266 292 308 318 354 345 339 331 324 340 314 261 254 336 257 186 180 149 9 122 258 140 238 234 10 82 232 164 234 135 223 187 226 249 256 256 228 221 253 265 282 286 282 269 239 249 259 268 270 261 260 282 287 295 312 308 295 274 266 267 275 283 284 274 273 268 261 288 285 251 250 264 265 142 18 270 269 251 249 280 168 186
326 324 324 324 320 300 271 233 287 296 325 327 332 330 326 322 301 299 285 270 27 266 16 218 68 204 209 186 225 228 260 185 259 124 183 131 180 267 216 230 250 263 269 265 260 250 239 263 271 282 282 256 256 256 254 258 264 259 267 281 276 265 253 271 282 285 280 279 273 269 265 265 266 276 288 286 254 318 344 279 223 294 16 25 35 30 58 72
325 322 322 327 320 297 283 220 255 269 299 334 333 323 314 293 266 238 202 260 9 328 165 97 241 151 199 235 224 203 234 211 212 144 197 216 190 208 255 312 282 250 252 251 257 266 279 271 272 294 282 308 304 297 304 306 303 324 312 288 278 276 278 273 265 263 263 249 261 265 266 268 279 264 286 309 216 179 338 198 304 17 18 24 33 25 352 118
323 321 318 325 302 315 312 270 97 348 335 338 330 309 290 274 261 288 258 323 294 280 273 240 144 108 241 250 264 215 214 271 180 209 210 200 228 200 239 230 226 264 261 254 251 253 246 251 258 244 264 274 286 288 285 286 288 290 289 287 290 283 283 273 265 260 264 264 259 255 260 260 262 280 280 302 324 267 210 57 53 43 47 37 28 29 21 15
324 320 315 316 268 292 273 301 334 327 341 328 318 308 283 271 209 238 254 68 267 62 301 24 14 302 315 306 280 279 224 212 260 182 230 209 225 200 200 240 195 232 237 235 253 248 249 240 251 274 243 227 234 256 268 268 263 258 260 265 275 287 279 279 282 261 252 265 276 308 343 328 322 317 295 186 47 52 55 56 58 65 57 49 39 40 28 21
324 317 314 294 259 226 249 266 298 318 319 321 306 278 255 268 260 239 253 273 323 342 53 323 307 353 300 305 273 264 247 278 216 242 249 263 269 231 206 203 235 232 277 268 267 255 258 280 287 270 270 263 248 246 272 269 254 256 258 265 264 269 274 277 280 289 285 264 345 321 327 279 345 288 302 359 99 89 78 68 68 66 62 52 49 36 33 28
322 315 312 277 272 260 272 293 290 308 318 312 289 243 251 250 253 274 280 287 289 96 331 313 306 302 285 266 278 280 251 187 252 237 220 249 232 252 283 252 224 231 228 264 274 277 268 234 222 270 289 3 327 290 259 281 292 272 270 261 248 258 263 279 277 277 287 317 307 316 307 276 359 277 284 308 72 86 74 80 93 82 64 62 51 47 42 28
317 303 270 259 240 247 251 259 291 319 302 284 248 248 219 231 263 278 265 299 338 353 323 348 307 308 294 284 273 278 266 256 243 276 259 263 254 268 263 280 313 343 222 268 250 269 265 270 281 225 234 237 262 266 246 248 263 278 271 259 264 274 288 269 288 286 295 301 284 281 274 238 209 231 290 27 71 73 93 86 81 74 69 58 55 46 38 34
310 324 309 279 276 162 247 313 317 310 295 280 250 227 232 235 260 259 340 351 310 357 336 318 306 291 280 264 267 278 65 253 240 273 271 261 271 262 80 53 53 46 295 233 298 267 264 277 303 309 298 242 223 262 269 281 269 282 295 261 267 268 254 267 281 265 278 261 255 260 250 252 275 219 73 34 7 84 77 73 67 69 67 62 58 57 46 42
327 316 307 321 263 68 346 287 326 303 279 275 259 245 242 254 253 268 27 359 348 324 320 318 307 313 312 308 292 262 130 211 255 261 256 252 259 255 219 88 139 271 273 330 259 263 284 277 272 264 248 239 226 252 274 270 282 286 272 277 287 272 272 268 277 282 270 270 275 270 272 272 265 286 201 139 98 73 73 62 71 75 76 71 61 56 51 42
312 302 288 273 292 343 317 346 325 281 271 261 246 258 294 288 289 310 343 349 340 344 326 311 298 294 287 286 286 293 97 296 328 181 274 268 279 16 346 269 116 277 322 220 273 267 272 271 257 260 272 277 249 235 243 251 247 259 267 291 277 278 272 260 273 262 265 266 280 272 285 285 275 317 16 88 97 109 93 94 88 76 70 69 67 63 57 43
273 278 292 138 69 348 360 336 285 275 254 246 249 255 244 243 263 272 44 351 325 306 290 280 280 292 293 290 292 301 317 306 307 284 307 287 271 73 289 326 177 95 252 273 258 267 262 273 270 258 265 277 283 264 250 245 202 235 254 252 246 269 271 278 230 246 259 273 286 276 269 274 353 118 119 109 95 89 106 20 42 90 70 72 69 49 49 47
307 305 231 59 340 5 339 291 277 251 250 248 252 253 284 286 291 41 31 35 342 330 292 301 287 284 277 286 297 300 310 309 321 305 301 322 289 130 254 126 280 274 30 331 295 297 277 259 270 258 268 263 239 234 254 251 265 254 248 243 222 241 257 259 253 248 243 260 255 273 274 273 90 114 118 129 132 132 129 140 159 119 117 93 80 66 38 35
306 270 127 333 334 326 293 263 251 242 241 250 258 276 285 324 333 330 60 136 272 263 283 282 292 283 298 308 292 289 285 286 284 270 271 277 269 276 40 28 68 269 295 285 273 268 260 256 259 264 251 256 259 225 234 235 240 252 274 294 291 260 249 244 261 269 262 246 239 241 251 250 93 227 100 143 181 154 192 147 201 131 114 117 100 75 53 33
302 301 70 225 16 283 273 264 244 238 252 261 265 264 255 79 288 289 305 318 275 277 265 275 270 290 288 279 290 298 301 299 289 283 270 279 300 291 130 200 98 349 353 288 281 25 3 328 295 262 252 253 259 258 264 276 286 285 267 269 265 272 279 272 262 262 281 269 273 264 269 261 167 169 188 171 186 172 185 225 157 217 67 78 96 83 78 54
289 289 323 333 1 291 263 257 265 259 251 256 273 279 285 277 282 290 292 279 288 286 275 259 261 260 254 271 279 283 287 281 279 272 280 277 278 316 77 73 74 282 325 289 283 350 3 270 264 258 266 267 270 274 273 271 274 274 241 243 256 258 263 273 273 266 270 302 294 281 258 269 200 197 73 123 288 162 44 22 340 331 62 337 88 67 27 37
314 299 306 147 304 270 263 263 292 297 301 299 281 279 286 286 293 289 274 292 291 290 279 273 271 257 281 283 282 274 288 286 265 265 267 269 267 82 210 55 45 285 292 15 343 28 294 247 259 272 273 270 263 253 248 239 248 251 257 242 251 260 260 262 274 295 286 253 264 270 267 267 296 294 125 173 115 357 12 351 318 327 2 359 342 67 41 353
289 265 236 252 179 223 264 305 315 308 308 306 309 306 307 296 296 275 266 278 285 287 302 273 277 291 281 269 262 268 262 261 282 282 291 293 289 139 93 253 66 285 64 43 19 0 282 286 280 257 253 250 245 242 266 310 338 324 317 307 294 283 280 277 263 270 273 273 269 260 267 271 284 290 264 214 198 185 192 211 247 273 294 309 323 20 46 353
333 334 0 282 167 235 254 270 284 290 288 292 304 297 293 285 282 280 240 246 275 290 283 289 284 289 288 298 286 262 263 259 266 288 285 279 278 273 259 224 150 257 85 54 5 357 291 291 276 274 270 269 275 288 42 338 325 294 288 281 276 276 284 290 291 264 255 270 266 258 261 273 273 283 295 297 305 293 291 291 291 290 285 293 316 344 360 350
304 277 355 332 328 264 279 236 281 251 291 358 311 320 302 306 311 310 338 312 243 285 317 304 306 291 280 276 271 279 280 281 271 270 266 263 262 276 298 316 253 214 142 182 167 198 260 270 259 268 272 274 288 291 298 302 286 281 274 268 273 277 281 282 266 263 276 280 260 254 260 266 272 277 284 298 301 301 308 312 311 315 322 340 325 320 310 306
278 355 353 45 309 306 320 316 10 326 315 318 299 321 298 297 300 295 308 287 283 263 261 269 259 264 272 259 270 282 291 284 279 268 269 276 290 271 262 243 233 182 160 209 187 210 239 253 258 264 264 268 271 279 288 292 286 284 281 273 268 267 268 269 271 271 273 262 268 278 282 280 277 277 283 287 294 291 294 303 302 305 309 298 290 288 312 292
313 328 315 28 316 322 316 313 316 310 303 299 295 300 289 287 289 293 300 306 303 310 299 285 295 279 275 284 276 285 266 261 260 276 282 289 308 321 296 276 273 198 178 255 235 211 234 245 262 262 269 268 266 268 276 276 271 274 276 278 276 275 274 271 270 266 264 267 271 273 273 268 268 273 278 284 296 296 289 288 302 295 287 306 343 344 353 338
0 1 325 340 314 296 294 301 304 309 297 292 288 278 297 293 289 297 294 305 319 298 281 271 274 303 328 327 292 253 300 330 348 0 336 314 296 283 301 304 290 276 268 248 269 236 230 257 263 273 271 269 268 264 262 271 284 277 268 265 265 266 268 260 255 257 261 263 263 265 269 271 268 276 281 288 296 294 284 277 275 266 269 307 289 312 325 326
347 321 330 312 310 305 319 302 287 284 286 277 263 270 261 270 263 264 270 277 268 279 310 302 307 332 312 294 305 309 4 349 328 329 334 322 308 295 302 317 316 292 294 291 230 2 156 271 284 279 273 267 270 282 279 272 266 264 263 260 260 262 263 259 256 252 248 252 260 267 267 264 273 273 266 260 258 264 278 288 291 317 308 290 302 297 292 291
341 328 277 267 277 296 293 289 283 270 255 264 304 346 316 314 331 340 328 318 338 300 321 353 343 344 306 300 286 352 340 331 332 320 307 306 300 296 280 279 280 290 295 287 316 302 285 259 259 261 261 263 272 275 277 279 277 268 255 262 270 266 258 257 260 264 265 270 255 248 256 267 278 284 286 280 276 272 274 282 288 285 332 353 327 305 292 290